Location: G�ppingen
(48.7089°N, 9.6563°E)
Time: 11:48:48
(UTC+02:00)

NUDT-PHONESAT - Visible Passes

Search period start: 23 October 2019 00:00
Search period end: 01 November 2019 23:00
Orbit: 486 x 506 km, 97.4° (Epoch: 22 October)

Date Brightness Start Highest point End Pass type
(mag) Time Alt. Az. Time Alt. Az. Time Alt. Az.
23 Oct ? 06:42:39 10° E 06:43:05 10° E 06:43:32 10° E visible
23 Oct ? 18:54:30 10° SSE 18:58:08 87° ENE 19:01:47 10° NNW visible
24 Oct ? 20:09:22 10° WSW 20:11:20 14° W 20:13:19 10° WNW visible
25 Oct ? 19:47:26 10° SSW 19:50:22 23° W 19:53:19 10° NW visible
26 Oct ? 07:11:47 10° NE 07:14:41 22° E 07:17:34 10° SSE visible
26 Oct ? 19:26:04 10° SSW 19:29:28 39° W 19:32:54 10° NNW visible
27 Oct ? 05:51:51 10° ENE 05:53:42 13° E 05:55:33 10° ESE visible
27 Oct ? 18:05:01 10° S 18:08:37 70° WSW 18:12:14 10° NNW visible
28 Oct ? 17:44:15 10° SSE 17:47:49 65° ENE 17:51:26 10° N visible
28 Oct ? 19:21:03 10° WSW 19:21:56 11° W 19:22:48 10° WNW visible
29 Oct ? 18:58:23 10° SW 19:00:55 18° W 19:03:27 10° NW visible
30 Oct ? 06:22:00 10° NE 06:25:12 28° E 06:28:23 10° SSE visible
30 Oct ? 18:36:45 10° SSW 18:39:57 29° W 18:43:11 10° NNW visible
31 Oct ? 06:01:45 10° NE 06:04:14 17° E 06:06:43 10° SE visible
31 Oct ? 18:15:33 10° S 18:19:04 52° W 18:22:37 10° NNW visible
01 Nov ? 05:42:39 10° E 05:43:13 10° E 05:43:46 10° E visible
01 Nov ? 17:54:37 10° SSE 17:58:15 87° ENE 18:01:52 10° NNW visible
